SJV609 WALL-WIII

Flight info

Callsign SJV609
Flight time N/A
Altitude 36000
Route AJAMA T14 AKSOX
Aircraft A320/M-SDE3FGHIRWY/LB1

Departure

Time 2026-04-15 11:02
Airport Sultan Aji Muhammad Sulaiman Sepinggan International Airport (WALL)

Arrival

Time N/A
Airport Soekarno-Hatta International Airport (WIII)
Time Latitude Longitude Altitude Speed Heading
2026-04-15 10:49 -1.26298 116.89889 37 ft 0 kts 338°
2026-04-15 10:55 -1.26308 116.89893 36 ft 2 kts 338°
2026-04-15 10:55 -1.26322 116.89898 36 ft 2 kts 339°
2026-04-15 10:55 -1.26336 116.89903 35 ft 2 kts 338°
2026-04-15 10:56 -1.26350 116.89909 35 ft 2 kts 338°
2026-04-15 10:56 -1.26364 116.89908 35 ft 2 kts 38°
2026-04-15 10:56 -1.26370 116.89902 35 ft 1 kts 68°
2026-04-15 10:56 -1.26372 116.89895 35 ft 0 kts 68°
2026-04-15 10:58 -1.26371 116.89898 35 ft 1 kts 68°
2026-04-15 10:58 -1.26362 116.89919 35 ft 5 kts 68°
2026-04-15 10:58 -1.26339 116.89973 34 ft 11 kts 66°
2026-04-15 10:59 -1.26301 116.90060 33 ft 14 kts 66°
2026-04-15 10:59 -1.26259 116.90160 32 ft 16 kts 67°
2026-04-15 10:59 -1.26219 116.90255 31 ft 11 kts 67°
2026-04-15 10:59 -1.26205 116.90324 30 ft 11 kts 107°
2026-04-15 11:00 -1.26250 116.90399 27 ft 14 kts 123°
2026-04-15 11:00 -1.26297 116.90459 25 ft 10 kts 144°
2026-04-15 11:00 -1.26359 116.90472 25 ft 6 kts 189°
2026-04-15 11:00 -1.26396 116.90472 24 ft 3 kts 182°
2026-04-15 11:01 -1.26405 116.90462 24 ft 0 kts 246°
2026-04-15 11:01 -1.26510 116.90215 27 ft 74 kts 247°
2026-04-15 11:02 -1.26799 116.89535 28 ft 136 kts 247°
2026-04-15 11:02 -1.27218 116.88547 314 ft 158 kts 249°
2026-04-15 11:02 -1.27631 116.87546 879 ft 157 kts 249°
2026-04-15 11:02 -1.28044 116.86544 1342 ft 162 kts 248°
2026-04-15 11:03 -1.28510 116.85465 1620 ft 176 kts 247°
2026-04-15 11:03 -1.29021 116.84282 1890 ft 193 kts 247°
2026-04-15 11:03 -1.29568 116.83009 2205 ft 209 kts 247°
2026-04-15 11:03 -1.30161 116.81622 2485 ft 229 kts 247°
2026-04-15 11:04 -1.30812 116.80087 2829 ft 249 kts 248°
2026-04-15 11:04 -1.31517 116.78425 3308 ft 265 kts 248°
2026-04-15 11:04 -1.32246 116.76704 3816 ft 279 kts 248°
2026-04-15 11:04 -1.33009 116.74905 4570 ft 283 kts 248°
2026-04-15 11:05 -1.33768 116.73113 5389 ft 284 kts 249°
2026-04-15 11:05 -1.34543 116.71285 6203 ft 286 kts 249°
2026-04-15 11:05 -1.35311 116.69475 6987 ft 288 kts 249°
2026-04-15 11:05 -1.36100 116.67622 7757 ft 290 kts 249°
2026-04-15 11:06 -1.36877 116.65789 8501 ft 291 kts 249°
2026-04-15 11:06 -1.37670 116.63920 9226 ft 293 kts 250°
2026-04-15 11:06 -1.38458 116.62058 9898 ft 295 kts 250°
2026-04-15 11:06 -1.39268 116.60146 10486 ft 301 kts 249°
2026-04-15 11:07 -1.40092 116.58195 10775 ft 316 kts 249°
2026-04-15 11:07 -1.40966 116.56127 11045 ft 332 kts 249°
2026-04-15 11:07 -1.41883 116.53964 11412 ft 342 kts 249°
2026-04-15 11:07 -1.42812 116.51771 11982 ft 345 kts 249°
2026-04-15 11:08 -1.43752 116.49556 12573 ft 347 kts 249°
2026-04-15 11:08 -1.44694 116.47334 13110 ft 350 kts 249°
2026-04-15 11:08 -1.45650 116.45076 13633 ft 353 kts 249°
2026-04-15 11:08 -1.46610 116.42808 14157 ft 356 kts 249°
2026-04-15 11:09 -1.47561 116.40522 14677 ft 358 kts 249°
2026-04-15 11:09 -1.48506 116.38229 15162 ft 360 kts 249°
2026-04-15 11:09 -1.49461 116.35911 15633 ft 363 kts 249°
2026-04-15 11:09 -1.50423 116.33578 16101 ft 365 kts 249°
2026-04-15 11:10 -1.51394 116.31224 16555 ft 367 kts 248°
2026-04-15 11:10 -1.52362 116.28879 16990 ft 370 kts 248°
2026-04-15 11:10 -1.53351 116.26487 17461 ft 371 kts 248°
2026-04-15 11:10 -1.54315 116.24099 17889 ft 373 kts 248°
2026-04-15 11:11 -1.55277 116.21683 18269 ft 376 kts 248°
2026-04-15 11:11 -1.56238 116.19260 18658 ft 379 kts 248°
2026-04-15 11:11 -1.57208 116.16816 19050 ft 381 kts 248°
2026-04-15 11:11 -1.58196 116.14330 19432 ft 384 kts 247°
2026-04-15 11:12 -1.59181 116.11856 19794 ft 387 kts 247°
2026-04-15 11:12 -1.60178 116.09346 20159 ft 390 kts 247°
2026-04-15 11:12 -1.61183 116.06818 20511 ft 392 kts 247°
2026-04-15 11:12 -1.62188 116.04285 20858 ft 395 kts 246°
2026-04-15 11:13 -1.63212 116.01715 21195 ft 398 kts 246°
2026-04-15 11:13 -1.64227 115.99161 21524 ft 400 kts 246°
2026-04-15 11:13 -1.65264 115.96561 21853 ft 402 kts 246°
2026-04-15 11:13 -1.66302 115.93970 22169 ft 405 kts 246°
2026-04-15 11:14 -1.67343 115.91364 22490 ft 407 kts 246°
2026-04-15 11:14 -1.68394 115.88734 22809 ft 409 kts 246°
2026-04-15 11:14 -1.69447 115.86097 23122 ft 410 kts 246°
2026-04-15 11:14 -1.70503 115.83447 23437 ft 412 kts 246°
2026-04-15 11:15 -1.71563 115.80788 23750 ft 414 kts 246°
2026-04-15 11:15 -1.72635 115.78097 24063 ft 415 kts 246°
2026-04-15 11:15 -1.73699 115.75424 24363 ft 417 kts 246°
2026-04-15 11:15 -1.74768 115.72736 24649 ft 419 kts 246°
2026-04-15 11:16 -1.75844 115.70030 24921 ft 421 kts 246°
2026-04-15 11:16 -1.76928 115.67306 25192 ft 423 kts 246°
2026-04-15 11:16 -1.78018 115.64563 25449 ft 425 kts 246°
2026-04-15 11:16 -1.79107 115.61826 25711 ft 427 kts 246°
2026-04-15 11:17 -1.80200 115.59076 25986 ft 428 kts 247°
2026-04-15 11:17 -1.81290 115.56328 26259 ft 430 kts 246°
2026-04-15 11:17 -1.82399 115.53536 26518 ft 431 kts 247°
2026-04-15 11:17 -1.83510 115.50736 26761 ft 433 kts 247°
2026-04-15 11:18 -1.84620 115.47949 27002 ft 435 kts 247°
2026-04-15 11:18 -1.85741 115.45150 27239 ft 437 kts 245°
2026-04-15 11:18 -1.87066 115.42396 27460 ft 438 kts 240°
2026-04-15 11:18 -1.88635 115.39809 27693 ft 439 kts 234°
2026-04-15 11:19 -1.90462 115.37338 27918 ft 440 kts 230°
2026-04-15 11:19 -1.92368 115.34944 28139 ft 442 kts 230°
2026-04-15 11:19 -1.94298 115.32552 28357 ft 443 kts 230°
2026-04-15 11:19 -1.96221 115.30165 28574 ft 445 kts 230°
2026-04-15 11:20 -1.98174 115.27736 28796 ft 447 kts 230°
2026-04-15 11:20 -2.00127 115.25304 29023 ft 448 kts 230°
2026-04-15 11:20 -2.02078 115.22865 29253 ft 450 kts 230°
2026-04-15 11:20 -2.04016 115.20446 29485 ft 451 kts 230°
2026-04-15 11:21 -2.05986 115.17982 29711 ft 453 kts 230°
2026-04-15 11:21 -2.07952 115.15527 29933 ft 454 kts 230°
2026-04-15 11:21 -2.09933 115.13047 30165 ft 456 kts 230°
2026-04-15 11:21 -2.11924 115.10555 30400 ft 457 kts 230°